Location: Unspecified
(29.1111°N, 0.0000°E)
Time: 03:24:34
(UTC+00:00)

Aureole 1 Rocket - Visible Passes

Search period start: 04 April 2026 00:00
Search period end: 14 April 2026 00:00
Orbit: 374 x 1155 km, 73.9° (Epoch: 29 March)

Date Brightness Start Highest point End Pass type
(mag) Time Alt. Az. Time Alt. Az. Time Alt. Az.
4 Apr 5.3 19:35:07 10° SSE 19:35:28 12° SSE 19:35:28 12° SSE visible
5 Apr 4.5 18:58:27 10° SE 19:00:44 14° ESE 19:02:48 10° ENE visible
5 Apr 5.0 20:39:08 10° SW 20:42:29 23° WNW 20:45:22 10° NNW visible
6 Apr 3.4 20:00:04 10° SSW 20:04:12 53° WNW 20:07:36 10° N visible
7 Apr 2.6 19:21:43 10° S 19:25:52 60° ESE 19:29:16 10° NNE visible
8 Apr 3.7 18:44:06 10° SSE 18:47:28 24° ESE 18:50:22 10° NE visible
8 Apr 6.1 20:27:53 10° W 20:29:11 11° WNW 20:30:25 10° NW visible
9 Apr 5.9 05:15:26 10° NNE 05:18:35 22° ENE 05:22:15 10° SE visible
9 Apr 4.9 19:47:30 10° SW 19:50:48 26° WNW 19:53:40 10° NNW visible
10 Apr 6.8 04:39:10 10° ENE 04:40:11 11° ENE 04:41:15 10° E visible
10 Apr 3.0 19:08:31 10° SSW 19:12:26 65° WNW 19:15:43 10° N visible
12 Apr 4.8 05:01:13 10° N 05:05:07 40° ENE 05:09:55 10° SE visible
12 Apr 6.0 19:35:35 10° W 19:37:16 13° WNW 19:38:51 10° NW visible
13 Apr 6.1 04:23:32 10° NNE 04:26:42 20° ENE 04:30:24 10° ESE visible
13 Apr 4.7 18:55:33 10° SW 18:58:49 30° WNW 19:01:40 10° N visible
